Wind_Speed
19 19 18 17 17 16 16 16 16 15 14 14 14 13 13 13 13 13 13 13 13 13 13 13 14 15 15 16 16 17 18 18 19 20 20 21 21 22
20 20 20 19 18 18 18 18 18 17 16 16 16 16 15 15 15 15 15 14 14 14 15 16 16 17 18 18 19 20 21 21 22 22 23 23 24 24
22 22 22 21 20 20 20 19 19 18 18 18 18 18 17 17 17 17 17 17 17 17 18 18 19 19 20 21 22 23 24 24 25 25 26 26 26 27
23 23 23 22 22 21 21 20 20 20 21 20 20 20 20 20 19 18 18 19 20 20 21 21 21 22 23 23 24 25 26 27 27 28 28 29 29 30
23 23 24 24 23 23 22 22 22 22 22 22 22 22 22 21 21 21 21 22 22 23 23 24 24 25 26 27 28 28 29 30 30 31 31 32 32 33
24 24 24 25 25 25 24 24 24 23 23 24 24 24 24 24 24 24 25 25 25 25 26 26 27 28 29 30 30 31 32 33 34 34 35 35 36 36
24 24 24 25 26 26 25 26 25 25 25 26 26 26 26 27 27 28 28 27 27 28 28 29 30 30 31 32 33 34 35 36 36 37 37 37 38 39
25 24 24 25 26 27 27 27 27 28 28 28 28 29 28 29 29 29 29 29 29 30 31 32 33 34 35 35 36 36 37 38 38 39 39 40 40 41
24 24 24 24 24 26 27 28 28 29 29 29 29 30 30 30 30 30 31 31 32 33 34 34 36 36 37 38 38 39 39 40 40 40 41 42 43 44
24 23 25 25 26 27 28 28 28 30 31 31 31 32 32 33 33 33 34 35 35 36 37 37 38 39 40 41 41 41 42 42 43 43 44 45 46 47
24 25 25 26 27 29 29 29 30 32 33 33 34 34 34 35 35 35 35 37 37 39 39 40 41 41 42 43 44 44 45 46 46 46 47 48 49 49
25 26 27 28 29 29 29 30 31 33 34 35 35 35 35 36 37 37 37 38 40 41 41 42 43 44 44 45 45 46 47 47 48 48 49 50 51 51
26 27 28 29 29 30 31 32 33 34 34 35 36 37 38 38 39 39 40 40 41 41 42 43 44 45 46 46 46 47 48 48 49 49 50 50 51 51
27 28 29 29 30 31 33 32 33 34 35 37 38 38 39 40 41 42 42 43 44 44 45 46 46 47 47 48 48 48 49 50 50 50 51 52 52 52
29 30 32 33 33 34 35 35 36 36 36 37 38 39 40 41 42 43 44 45 45 46 46 47 48 48 48 48 49 50 50 51 52 53 53 53 54 54
31 32 32 33 34 35 36 36 36 36 37 38 39 41 41 42 44 45 45 46 45 45 46 47 47 48 49 49 50 51 52 53 53 53 53 53 53 54
33 34 34 34 36 36 36 36 37 38 39 40 41 42 43 44 44 45 46 46 46 46 46 47 47 48 49 50 51 52 53 54 54 54 53 53 53 53
34 35 35 35 36 37 38 37 38 38 39 40 42 42 43 43 44 44 45 45 46 47 48 49 50 50 50 51 52 53 53 53 53 53 53 53 52 52
35 35 36 36 37 38 38 39 39 40 41 41 42 42 43 44 45 45 45 46 46 48 50 51 51 52 52 53 53 53 53 53 52 52 52 52 52 51
36 37 38 38 39 39 39 40 40 41 41 41 42 43 44 44 45 46 47 48 49 50 51 51 51 51 51 52 52 52 51 51 50 50 50 50 50 49
36 37 38 38 39 39 40 40 40 40 41 41 42 43 43 44 45 46 47 48 48 49 49 49 49 49 50 50 49 48 48 48 48 48 48 47 45 44
37 37 38 38 39 39 39 40 40 41 41 41 42 42 43 43 45 46 47 46 46 46 46 47 47 47 47 47 46 46 46 46 45 45 44 43 41 39
36 36 37 37 37 38 39 40 41 41 41 41 42 42 42 43 43 44 43 43 44 44 44 44 44 44 44 44 45 44 44 43 43 42 40 38 36 35
Wind_Direction
239 240 241 243 244 246 247 247 249 251 255 259 264 266 268 271 274 277 280 280 281 283 287 289 290 291 291 292 294 295 296 295 295 296 296 297 296 296
241 241 243 245 246 247 248 250 253 254 256 259 263 266 268 270 274 276 277 279 281 284 284 286 288 289 290 291 293 294 294 294 294 294 294 294 294 294
242 243 244 246 249 250 251 252 254 256 258 260 262 265 268 270 272 273 276 279 280 282 284 285 286 287 288 290 291 292 292 292 293 293 293 292 292 292
243 243 244 247 251 252 254 255 256 257 259 261 263 266 269 271 271 273 276 279 281 282 284 285 285 286 288 289 291 292 292 292 292 292 292 292 291 290
245 245 245 249 252 254 256 256 257 258 260 262 264 267 269 270 271 273 276 279 280 282 284 284 286 287 288 289 290 291 292 292 292 293 293 293 292 292
248 248 248 251 253 254 255 255 257 259 261 263 264 267 269 270 271 273 276 278 280 281 283 284 285 286 288 289 290 291 292 292 293 293 292 292 292 292
248 251 252 254 254 254 255 257 258 259 262 264 265 267 270 271 273 274 277 278 280 281 282 284 286 287 289 290 291 291 291 292 292 293 293 293 293 293
249 252 255 256 256 256 257 258 259 262 264 266 268 268 270 272 274 276 276 277 279 281 283 285 287 289 290 291 291 291 292 292 292 292 292 293 293 293
251 252 255 258 259 260 261 261 259 261 264 266 268 269 270 271 272 275 277 277 279 281 283 285 287 288 289 290 291 291 291 291 292 291 292 293 293 293
253 254 257 260 261 261 263 262 262 264 265 267 270 270 272 273 273 274 277 278 280 282 283 285 286 288 289 291 291 291 291 292 292 292 293 294 294 294
256 257 259 263 264 263 264 264 266 267 268 269 270 272 273 273 273 275 277 279 281 282 284 285 286 287 289 290 290 290 290 290 291 292 293 293 293 293
257 260 262 265 266 267 265 266 268 270 270 270 271 272 273 275 275 276 277 279 281 283 284 285 286 287 289 290 290 290 290 290 291 292 292 293 294 293
260 263 265 266 268 269 269 270 270 271 272 273 273 273 274 276 278 279 279 280 282 283 285 285 286 287 287 288 289 290 291 291 292 292 292 293 293 293
264 264 265 266 269 270 271 271 271 272 273 274 274 275 276 277 279 280 281 283 283 284 284 285 286 287 288 289 289 289 290 291 292 292 293 293 293 293
266 266 268 269 271 272 273 273 275 274 275 276 276 278 278 278 279 281 283 283 283 284 285 285 286 288 289 290 289 289 290 291 292 293 293 294 294 294
268 269 271 273 274 274 275 276 277 277 277 277 277 279 281 281 281 282 282 283 283 284 286 286 287 288 290 290 291 291 292 293 293 293 294 295 295 295
272 272 273 274 275 276 277 277 277 278 279 279 280 280 281 282 283 283 282 283 284 285 287 287 288 290 291 292 292 293 293 293 293 293 294 294 295 295
273 274 276 276 278 278 279 280 279 280 281 281 281 281 282 283 283 283 284 284 285 286 288 289 290 290 291 291 292 293 293 294 294 294 295 295 295 295
276 277 277 278 278 279 280 280 280 280 282 283 282 282 283 283 283 283 285 285 286 287 288 289 290 291 292 292 293 293 294 294 295 295 296 296 296 296
278 278 279 279 280 280 281 281 281 281 281 282 283 283 284 285 285 285 286 287 288 288 289 289 291 292 293 294 294 295 295 296 296 296 296 296 296 296
278 278 280 280 280 281 281 281 282 283 283 282 283 284 284 284 285 286 287 289 289 290 291 291 292 293 294 294 294 295 296 296 297 297 297 297 297 296
279 280 281 281 281 281 282 282 282 283 285 284 285 285 285 286 287 288 289 290 292 292 293 294 294 294 294 295 295 295 296 296 297 297 298 298 298 297
281 281 282 283 283 284 284 284 284 284 285 286 286 287 288 288 289 289 289 291 292 294 294 295 296 296 296 296 297 296 296 297 297 297 297 298 298 297
Height
5882 5884 5885 5886 5887 5888 5889 5890 5891 5892 5892 5892 5892 5892 5892 5891 5891 5890 5890 5889 5889 5888 5888 5887 5887 5886 5885 5884 5883 5881 5880 5879 5877 5876 5874 5873 5871 5870
5878 5880 5881 5883 5884 5885 5886 5886 5887 5888 5888 5888 5888 5888 5888 5888 5887 5887 5886 5886 5885 5885 5884 5883 5883 5882 5881 5880 5878 5877 5876 5874 5872 5871 5869 5868 5866 5864
5874 5875 5877 5878 5879 5880 5881 5882 5883 5883 5884 5884 5884 5884 5884 5883 5883 5882 5882 5881 5881 5880 5880 5879 5878 5877 5875 5874 5873 5872 5870 5868 5867 5865 5863 5862 5860 5858
5869 5870 5872 5873 5875 5876 5876 5877 5878 5878 5879 5879 5879 5879 5879 5878 5878 5877 5877 5876 5876 5875 5874 5873 5872 5871 5870 5868 5867 5865 5864 5862 5860 5858 5856 5854 5852 5850
5864 5865 5867 5868 5869 5870 5871 5872 5873 5873 5874 5874 5874 5874 5873 5873 5872 5872 5872 5871 5870 5869 5868 5867 5866 5865 5863 5862 5860 5859 5857 5855 5853 5850 5848 5846 5844 5842
5859 5860 5861 5862 5864 5865 5865 5866 5867 5867 5868 5868 5868 5868 5867 5867 5866 5866 5866 5865 5864 5863 5862 5860 5859 5858 5856 5855 5853 5851 5849 5847 5844 5842 5840 5837 5835 5832
5853 5854 5855 5857 5858 5859 5859 5860 5861 5861 5861 5861 5861 5861 5861 5860 5860 5859 5859 5858 5856 5855 5854 5853 5851 5850 5848 5846 5845 5842 5840 5838 5835 5832 5830 5827 5825 5822
5848 5849 5850 5850 5851 5852 5853 5854 5854 5855 5855 5855 5854 5854 5854 5853 5852 5852 5851 5850 5849 5848 5846 5845 5843 5841 5839 5837 5835 5833 5830 5828 5825 5822 5820 5817 5814 5811
5841 5843 5844 5844 5845 5846 5846 5846 5847 5847 5847 5847 5847 5847 5846 5845 5845 5844 5843 5842 5841 5839 5837 5836 5834 5832 5830 5827 5825 5823 5820 5817 5814 5811 5808 5805 5802 5799
5836 5837 5838 5838 5839 5839 5839 5839 5840 5840 5840 5839 5839 5838 5838 5837 5836 5835 5834 5833 5831 5830 5828 5826 5824 5822 5819 5817 5814 5812 5809 5806 5803 5800 5796 5793 5790 5786
5830 5831 5831 5832 5832 5832 5832 5832 5832 5832 5831 5831 5830 5829 5828 5827 5826 5826 5825 5823 5822 5820 5818 5816 5813 5811 5808 5805 5802 5800 5796 5793 5790 5787 5783 5780 5776 5772
5823 5824 5825 5825 5825 5824 5824 5824 5824 5823 5822 5822 5821 5820 5819 5818 5816 5815 5814 5813 5811 5809 5807 5805 5802 5799 5797 5794 5790 5786 5783 5780 5777 5773 5769 5766 5761 5757
5816 5817 5818 5817 5817 5816 5816 5815 5815 5814 5813 5812 5811 5810 5809 5808 5806 5805 5803 5802 5800 5798 5796 5793 5790 5787 5784 5781 5778 5774 5770 5766 5763 5759 5755 5752 5747 5743
5809 5809 5809 5809 5809 5808 5807 5807 5805 5804 5803 5802 5801 5800 5799 5797 5796 5794 5792 5790 5788 5785 5783 5780 5777 5774 5771 5767 5764 5761 5757 5753 5749 5745 5741 5737 5733 5728
5802 5801 5801 5801 5800 5799 5798 5797 5796 5795 5793 5792 5791 5790 5788 5786 5784 5782 5780 5777 5775 5772 5770 5767 5764 5761 5757 5754 5751 5747 5743 5739 5734 5730 5726 5721 5717 5712
5793 5793 5792 5792 5791 5790 5788 5787 5786 5785 5783 5782 5780 5778 5776 5774 5772 5769 5767 5764 5762 5759 5756 5753 5750 5747 5743 5739 5736 5732 5728 5724 5719 5715 5711 5706 5701 5696
5784 5784 5783 5782 5781 5780 5778 5777 5775 5774 5772 5770 5768 5766 5764 5762 5759 5757 5754 5751 5748 5746 5742 5739 5736 5733 5729 5725 5721 5717 5713 5708 5704 5700 5695 5691 5686 5680
5775 5774 5773 5772 5771 5769 5768 5766 5764 5762 5760 5758 5756 5754 5752 5749 5746 5744 5741 5738 5735 5732 5729 5726 5722 5718 5715 5711 5707 5702 5698 5693 5689 5684 5679 5675 5670 5665
5766 5764 5763 5762 5760 5758 5757 5755 5753 5751 5749 5746 5744 5742 5739 5736 5733 5731 5728 5725 5722 5719 5715 5711 5707 5703 5700 5696 5691 5687 5682 5677 5673 5668 5664 5659 5654 5650
5755 5754 5752 5751 5749 5747 5745 5743 5741 5739 5736 5734 5731 5729 5726 5723 5720 5717 5714 5711 5708 5704 5700 5696 5692 5688 5684 5681 5676 5671 5666 5662 5657 5653 5648 5644 5639 5634
5745 5743 5741 5739 5738 5736 5733 5731 5729 5726 5724 5721 5718 5716 5713 5710 5707 5703 5700 5697 5693 5689 5686 5682 5678 5674 5670 5665 5661 5657 5652 5648 5643 5638 5634 5629 5625 5620
5734 5732 5730 5728 5726 5724 5721 5719 5717 5714 5712 5709 5706 5703 5699 5696 5693 5690 5686 5683 5679 5675 5671 5668 5664 5660 5656 5652 5647 5643 5638 5634 5629 5625 5620 5616 5612 5608
5723 5721 5719 5716 5714 5712 5709 5707 5704 5702 5699 5696 5693 5690 5686 5683 5680 5676 5673 5670 5666 5662 5658 5655 5650 5646 5642 5638 5633 5629 5625 5621 5616 5612 5609 5604 5601 5597